CW9792 Weather Reports


time (UTC)temp
F
wind
direction
speed
knots
gust
knots
rain 1hr
in
rain 24hr
in
rain mn
in
humidity
%
barometer
mb
20260503215027 63 246 0.0 0.0 0.00 0.00 0.00 31 1015.6
20260503214528 63 230 0.0 0.0 0.00 0.00 0.00 29 1015.7
20260503214025 63 267 0.0 0.0 0.00 0.00 0.00 30 1016.0
20260503213525 63 225 0.0 0.0 0.00 0.00 0.00 29 1016.3
20260503213025 63 229 0.0 0.0 0.00 0.00 0.00 28 1016.1
20260503212525 63 250 0.0 0.0 0.00 0.00 0.00 27 1016.2
20260503212024 64 243 0.0 0.0 0.00 0.00 0.00 29 1016.2
20260503211524 63 243 0.0 0.0 0.00 0.00 0.00 28 1016.0
20260503211024 63 193 0.0 0.0 0.00 0.00 0.00 27 1016.0
20260503210521 63 248 0.0 0.0 0.00 0.00 0.00 27 1016.2
20260503210021 64 239 0.0 0.0 0.00 0.00 0.00 28 1016.3
20260503205522 63 229 0.0 0.0 0.00 0.00 0.00 28 1016.4
20260503205019 63 233 0.0 0.0 0.00 0.00 0.00 28 1016.5
20260503204521 63 244 0.0 0.0 0.00 0.00 0.00 27 1016.7
20260503204017 63 211 0.0 0.0 0.00 0.00 0.00 26 1016.7
20260503203521 63 248 0.0 0.0 0.00 0.00 0.00 29 1016.7
20260503203019 63 228 0.0 0.0 0.00 0.00 0.00 26 1016.8
20260503202516 63 225 0.0 0.0 0.00 0.00 0.00 27 1016.8
20260503202017 63 230 0.0 0.0 0.00 0.00 0.00 27 1016.9
20260503201513 62 225 0.0 0.0 0.00 0.00 0.00 25 1017.0
20260503201016 62 189 0.0 0.0 0.00 0.00 0.00 27 1017.3
20260503200511 62 201 0.0 0.0 0.00 0.00 0.00 26 1017.3
20260503200010 62 195 0.0 0.0 0.00 0.00 0.00 27 1017.4
20260503195510 62 196 0.0 0.0 0.00 0.00 0.00 24 1017.5
20260503195009 62 211 0.0 0.0 0.00 0.00 0.00 25 1017.7
20260503194510 62 233 0.0 0.0 0.00 0.00 0.00 24 1017.9
20260503194007 62 210 0.0 0.0 0.00 0.00 0.00 24 1018.0
20260503193509 63 242 0.0 0.0 0.00 0.00 0.00 25 1018.2
20260503193005 62 232 0.0 0.0 0.00 0.00 0.00 24 1018.3
20260503192504 62 234 0.0 0.9 0.00 0.00 0.00 26 1018.5
20260503192004 61 165 0.0 0.9 0.00 0.00 0.00 24 1018.4
20260503191503 61 242 0.0 0.0 0.00 0.00 0.00 23 1018.6
20260503191003 61 185 0.0 0.0 0.00 0.00 0.00 25 1018.6
20260503190501 61 188 0.0 0.0 0.00 0.00 0.00 25 1018.6
20260503190000 61 241 0.0 0.0 0.00 0.00 0.00 24 1018.7
20260503185600 61 216 0.0 0.0 0.00 0.00 0.00 26 1018.8
20260503185059 61 214 0.0 0.0 0.00 0.00 0.00 26 1018.9
20260503184619 61 197 0.0 0.0 0.00 0.00 0.00 25 1019.0
20260503184058 61 246 0.0 0.0 0.00 0.00 0.00 24 1019.0
20260503183556 61 225 0.0 0.0 0.00 0.00 0.00 27 1019.1
20260503183101 60 254 0.0 0.0 0.00 0.00 0.00 26 1019.3
20260503182555 60 253 0.0 0.0 0.00 0.00 0.00 26 1019.4
20260503182055 60 237 0.0 0.0 0.00 0.00 0.00 26 1019.3
20260503181558 59 248 0.0 0.0 0.00 0.00 0.00 26 1019.4
20260503181055 60 211 0.0 0.0 0.00 0.00 0.00 26 1019.5
20260503180553 60 240 0.0 0.0 0.00 0.00 0.00 26 1019.7
20260503180055 60 199 0.0 0.9 0.00 0.00 0.00 27 1019.7
20260503175552 59 138 0.0 0.0 0.00 0.00 0.00 28 1019.8
20260503175050 59 232 0.0 0.0 0.00 0.00 0.00 25 1019.9
20260503174551 59 250 0.0 0.0 0.00 0.00 0.00 25 1020.0
20260503174050 59 217 0.0 0.0 0.00 0.00 0.00 26 1020.1
20260503173553 59 233 0.0 0.9 0.00 0.00 0.00 25 1020.0
20260503173049 59 202 0.0 0.9 0.00 0.00 0.00 26 1020.1
20260503172548 59 254 0.0 6.1 0.00 0.00 0.00 25 1020.1
20260503172050 60 184 0.0 6.1 0.00 0.00 0.00 27 1020.2
20260503171608 59 198 0.0 0.0 0.00 0.00 0.00 28 1020.4
20260503171048 58 202 0.0 0.0 0.00 0.00 0.00 26 1020.6
20260503170547 59 213 0.0 0.0 0.00 0.00 0.00 25 1020.6
20260503150535 55 190 0.0 0.0 0.00 0.00 0.00 31 1021.8
20260503131012 47 192 0.0 0.0 0.00 0.00 0.00 54 1021.7
20260503130510 47 173 0.0 0.0 0.00 0.00 0.00 54 1021.7
20260503110552 34 181 0.0 0.0 0.00 0.00 0.00 69 1020.9
20260503081541 35 342 0.0 0.0 0.00 0.00 0.00 66 1020.6
20260503081039 35 342 0.0 0.0 0.00 0.00 0.00 66 1020.5
20260503080541 35 342 0.0 0.0 0.00 0.00 0.00 66 1020.5
20260503072536 35 342 0.0 0.0 0.00 0.00 0.00 65 1020.2
20260503072037 35 342 0.0 0.0 0.00 0.00 0.00 65 1020.3
20260503071552 35 342 0.0 0.0 0.00 0.00 0.00 64 1020.3
20260503071033 36 342 0.0 0.0 0.00 0.00 0.00 64 1020.2
20260503070532 36 342 0.0 0.0 0.00 0.00 0.00 64 1020.1
20260503055023 39 342 0.0 0.0 0.00 0.00 0.00 63 1020.5
20260503054528 39 342 0.0 0.0 0.00 0.00 0.00 63 1020.5
20260503054023 38 342 0.0 0.0 0.00 0.00 0.00 63 1020.5
20260503053522 39 342 0.0 0.0 0.00 0.00 0.00 63 1020.3
20260503053033 39 342 0.0 0.9 0.00 0.00 0.00 63 1020.3
20260503052521 39 342 0.0 0.9 0.00 0.00 0.00 63 1020.4
20260503052020 39 342 0.0 0.0 0.00 0.00 0.00 63 1020.4
20260503051522 40 342 0.0 0.0 0.00 0.00 0.00 63 1020.4
20260503051018 40 342 0.0 0.0 0.00 0.00 0.00 63 1020.4
20260503050520 40 342 0.0 0.0 0.00 0.00 0.00 63 1020.4
20260503050018 40 342 0.0 0.0 0.00 0.00 0.00 63 1020.4
20260503045517 40 342 0.0 0.0 0.00 0.00 0.00 63 1020.4
20260503045017 40 342 0.0 0.0 0.00 0.00 0.00 62 1020.4
20260503044533 40 342 0.0 0.0 0.00 0.00 0.00 62 1020.4
20260503044014 41 342 0.0 0.0 0.00 0.00 0.00 62 1020.3
20260503043513 41 342 0.0 0.0 0.00 0.00 0.00 62 1020.3
20260503043027 41 342 0.0 0.0 0.00 0.00 0.00 62 1020.2
20260503042513 41 342 0.0 0.0 0.00 0.00 0.00 62 1020.2
20260503042012 41 342 0.0 0.0 0.00 0.00 0.00 62 1020.2
20260503041511 42 342 0.0 0.0 0.00 0.00 0.00 62 1020.1
20260503041011 42 342 0.0 0.0 0.00 0.00 0.00 62 1020.1
20260503040509 42 342 0.0 0.0 0.00 0.00 0.00 62 1020.1
20260503040008 42 342 0.0 0.0 0.00 0.00 0.00 62 1020.1
20260503035508 42 342 0.0 0.0 0.00 0.00 0.00 61 1020.1
20260503035009 42 342 0.0 0.0 0.00 0.00 0.00 61 1020.0
20260503034507 43 342 0.0 0.0 0.00 0.00 0.00 60 1020.0
20260503034006 43 342 0.0 0.0 0.00 0.00 0.00 60 1020.0
20260503033510 43 342 0.0 0.0 0.00 0.00 0.00 60 1019.9
20260503033007 43 342 0.0 0.0 0.00 0.00 0.00 60 1020.0
20260503032506 44 342 0.0 0.0 0.00 0.00 0.00 60 1019.9
20260503032008 44 342 0.0 0.0 0.00 0.00 0.00 60 1019.9
20260503031505 44 342 0.0 0.0 0.00 0.00 0.00 59 1019.8
20260503031005 44 342 0.0 0.0 0.00 0.00 0.00 59 1019.8
20260503030504 44 342 0.0 0.0 0.00 0.00 0.00 59 1019.8
20260503030004 44 342 0.0 0.0 0.00 0.00 0.00 59 1019.7
20260503025503 45 342 0.0 0.0 0.00 0.00 0.00 59 1019.7
20260503025004 45 342 0.0 0.0 0.00 0.00 0.00 59 1019.6
20260503024502 45 342 0.0 0.0 0.00 0.00 0.00 59 1019.6
20260503024004 45 342 0.0 0.0 0.00 0.00 0.00 59 1019.6
20260503023503 45 342 0.0 0.0 0.00 0.00 0.00 59 1019.5
20260503023001 45 342 0.0 0.0 0.00 0.00 0.00 59 1019.5
20260503022501 45 342 0.0 0.0 0.00 0.00 0.00 59 1019.5
20260503022104 45 342 0.0 0.0 0.00 0.00 0.00 60 1019.4
20260503021603 45 342 0.0 0.0 0.00 0.00 0.00 60 1019.3
20260503021059 45 342 0.0 0.0 0.00 0.00 0.00 59 1019.3
20260503020559 45 342 0.0 0.0 0.00 0.00 0.00 59 1019.3
20260503020101 45 342 0.0 0.0 0.00 0.00 0.00 59 1019.2
20260503015557 45 342 0.0 0.0 0.00 0.00 0.00 59 1019.1
20260503015058 46 342 0.0 0.0 0.00 0.00 0.00 60 1019.1
20260503014558 46 342 0.0 0.0 0.00 0.00 0.00 60 1019.1
20260503014057 46 342 0.0 0.0 0.00 0.00 0.00 59 1019.0
20260503013559 46 342 0.0 0.0 0.00 0.00 0.00 59 1018.9
20260503013100 46 342 0.0 0.0 0.00 0.00 0.00 58 1018.8
20260503012557 47 342 0.0 0.0 0.00 0.00 0.00 58 1018.8
20260503012056 47 342 0.0 0.0 0.00 0.00 0.00 58 1018.7
20260503011620 47 342 0.0 0.0 0.00 0.00 0.00 57 1018.6
20260503011056 48 342 0.0 0.0 0.00 0.00 0.00 55 1018.6
20260503010556 48 342 0.0 0.0 0.00 0.00 0.00 55 1018.5
20260503010058 49 342 0.0 0.0 0.00 0.00 0.00 54 1018.5
20260503005559 49 342 0.0 0.0 0.00 0.00 0.00 54 1018.5
20260503005056 50 342 0.0 0.0 0.00 0.00 0.00 52 1018.4
20260503004555 50 342 0.0 0.0 0.00 0.00 0.00 50 1018.4
20260503004055 51 342 0.0 0.0 0.00 0.00 0.00 49 1018.4
20260503003555 51 342 0.0 0.0 0.00 0.00 0.00 50 1018.3
20260503003055 51 342 0.0 0.0 0.00 0.00 0.00 49 1018.4
20260503002555 52 342 0.0 0.0 0.00 0.00 0.00 48 1018.3
20260503002058 52 342 0.0 0.0 0.00 0.00 0.00 49 1018.3
20260503001555 52 342 0.0 0.0 0.00 0.00 0.00 47 1018.2
20260503001055 52 342 0.0 0.0 0.00 0.00 0.00 45 1018.1
20260503000555 52 342 0.0 0.0 0.00 0.00 0.00 45 1018.0
20260503000104 52 348 0.0 0.0 0.00 0.00 0.00 44 1017.9
20260502235557 52 348 0.0 0.0 0.00 0.00 0.00 44 1017.9
20260502235054 52 339 0.0 0.0 0.00 0.00 0.00 45 1017.9
20260502234602 53 355 0.0 0.0 0.00 0.00 0.00 45 1017.9
20260502234054 53 355 0.0 0.0 0.00 0.00 0.00 45 1017.8
20260502233554 53 351 0.0 0.0 0.00 0.00 0.00 45 1017.8
20260502233054 53 351 0.0 0.0 0.00 0.00 0.00 44 1017.7
20260502232553 53 355 0.0 0.0 0.00 0.00 0.00 44 1017.7
20260502232056 53 355 0.0 0.0 0.00 0.00 0.00 44 1017.7
20260502231553 53 5 0.0 0.0 0.00 0.00 0.00 43 1017.7
20260502231055 53 9 0.0 0.0 0.00 0.00 0.00 42 1017.7
20260502230553 53 15 0.0 0.0 0.00 0.00 0.00 42 1017.6
20260502230052 53 360 0.0 0.0 0.00 0.00 0.00 42 1017.7
20260502225554 53 9 0.0 0.0 0.00 0.00 0.00 43 1017.6
20260502225052 53 5 0.0 0.0 0.00 0.00 0.00 42 1017.7
20260502224552 53 355 0.0 0.0 0.00 0.00 0.00 43 1017.6
20260502224051 53 360 0.0 0.0 0.00 0.00 0.00 42 1017.6
20260502223551 53 360 0.0 0.0 0.00 0.00 0.00 41 1017.7
20260502223052 53 360 0.0 0.0 0.00 0.00 0.00 41 1017.7
20260502222552 54 355 0.0 0.0 0.00 0.00 0.00 40 1017.8
20260502222052 54 13 0.0 0.0 0.00 0.00 0.00 40 1017.7
20260502221607 54 13 0.0 0.0 0.00 0.00 0.00 39 1017.6
20260502221052 54 29 0.0 0.0 0.00 0.00 0.00 41 1017.6
20260502220550 54 15 0.0 0.0 0.00 0.00 0.00 39 1017.6
20260502220059 54 17 0.0 0.0 0.00 0.00 0.00 39 1017.5
20260502215550 54 10 0.0 0.0 0.00 0.00 0.00 40 1017.5